Regional Weather Roundup
Issued by NWS

Home | Current Version | Previous Version | Text Only | Print | Product List | Glossary On
Versions: 1 2 3 4 5 6 7 8 9 10 11 12 13 14 15 16 17 18 19 20 21 22 23 24 25 26 27 28 29 30 31 32 33 34 35 36 37 38 39 40 41 42 43 44 45 46 47 48 49 50
000
ASUS43 KFSD 050202
RWRSD

WEATHER ROUNDUP FOR SOUTH DAKOTA
NATIONAL WEATHER SERVICE SIOUX FALLS SD
900 PM CDT SAT JUL 04 2015

NOTE: "FAIR" INDICATES FEW OR NO CLOUDS BELOW 12,000 FEET WITH NO
SIGNIFICANT WEATHER AND/OR OBSTRUCTIONS TO VISIBILITY.


SDZ001>005-009-010-012>017-050300-
NORTHWEST AND NORTH CENTRAL SOUTH DAKOTA

CITY           SKY/WX    TMP DP  RH WIND       PRES   REMARKS
BUFFALO          N/A     80  65  59 N14       29.75R
FAITH            N/A     81  65  58 NE7       29.77R
MOBRIDGE       CLOUDY    82  73  74 SE8       29.72R
$$

SDZ012>016-024>037-041>051-057-063-072>074-050300-
SOUTHWEST AND SOUTH CENTRAL SOUTH DAKOTA

CITY           SKY/WX    TMP DP  RH WIND       PRES   REMARKS
RAPID CTY ARPT CLEAR     83  66  56 W3        29.79S
PIERRE         CLOUDY    82  69  64 SE14      29.70R
CUSTER         CLEAR     75  54  47 E6        29.99R
ELLSWORTH AFB  CLEAR     84  67  57 SW6       29.79R
PHILIP         CLEAR     81  64  56 S9        29.71R
PINE RIDGE     CLEAR     83  63  50 S5        29.80R
WINNER         FAIR      86  63  45 S14       29.75F
$$

SDZ004>011-016>023-039-040-050300-
NORTHEAST SOUTH DAKOTA

CITY           SKY/WX    TMP DP  RH WIND       PRES   REMARKS
ABERDEEN       PTCLDY    78  67  68 S9        29.76R
WATERTOWN      PTCLDY    76  65  68 S13       29.82F
BROOKINGS      CLEAR     75  63  64 S12G17    29.87F
SISSETON         N/A     77  65  66 S10       29.77F
$$

SDZ017-020-022-023-036>040-048>070-050300-
SOUTHEAST SOUTH DAKOTA

CITY           SKY/WX    TMP DP  RH WIND       PRES   REMARKS
SIOUX FALLS    PTCLDY    76  64  66 S14       29.87R
HURON          CLEAR     78  67  68 SE13G24   29.77F
CHAMBERLAIN    CLEAR     78  70  76 SE10      29.77R
MITCHELL       CLEAR     78  67  68 S14       29.81S
YANKTON        CLEAR     75  64  69 SE8       29.84S
$$

ABBREVIATIONS USED IN REMARKS
   TC - TEMPERATURE IN CELSIUS
  WCI - WIND CHILL INDEX
   HX - HEAT INDEX
  VSB - VISIBILITY



USA.gov is the U.S. government's official web portal to all federal, state and local government web resources and services.